COSMOS 1327

导读

COSMOS 1327(宇宙1327)是苏联(CIS)于1981年11月28日08:00发射的“宇宙”系列卫星,该系列是苏联/俄罗斯数量最多的卫星家族,涵盖军事侦察、技术试验、空间探测等多种任务类型。作为冷战时期航天活动产物,它延续了该系列保密任务的传统,在近地轨道完成既定使命后,如今已成为空间碎片,是人类早期航天活动的见证。

Basic Information
目录编号:
12982
目录名称:
COSMOS 1327
国际标识:
1981-116H
轨道中心:
EARTH
卫星名称:
COSMOS 1327
卫星全名:
--
卫星状态:
在轨 (已飞行16311 天)
发射日期:
1981-11-28 UTC
国别 :
俄罗斯(独联体) (CIS)
星等 :
--
Orbit Information
数据来源 国际轨道数据
星历时间: 2026-07-25T19:56:56+0800
14小时前
查看轨道信息
半长轴: 7920.347km
偏心率: 0.007627
轨道倾角: 73.979°
近地点辐角 63.443°
升交点赤经 229.540°
平近点角 7.935°
近地点: 1481.801km
远地点: 1602.619km
周期: 116.917分钟
每日圈数: 12.316476
Detailed Information
使用方式:
暂无
2D Orbit Map
3D Orbit Map
Orbit Altitude Analysis Chart
Orbit Inclination Analysis Chart
Orbit Comprehensive Analysis Chart
View Comprehensive Chart